Perry, FL

11:02 PM EDT on April 26, 2017 (GMT -0400)
Perry

Weather History for K40J - October, 2011

Change the Weather History Date:

Tuesday, October 18, 2011

  Actual Average (KVLD) Record (KVLD)
Temperature  
Mean Temperature 76 °F -  
Max Temperature 82 °F 77 °F 91 °F (2013)
Min Temperature 71 °F 54 °F 33 °F (1996)
Cooling Degree Days 11    
Growing Degree Days 26 (Base 50)    
Moisture  
Dew Point 68 °F    
Average Humidity 81    
Maximum Humidity 90    
Minimum Humidity 60    
Precipitation  
Precipitation 1.07 in - - ()
Sea Level Pressure  
Sea Level Pressure 29.70 in    
Wind  
Wind Speed 6 mph (ESE)    
Max Wind Speed 10 mph    
Max Gust Speed -    
Averages and records for this station are not official NWS values.
T = Trace of Precipitation, MM = Missing Value Source: NWS Daily Summary

Daily Weather History Graph

Daily Weather History Graph

Search for Another Location

Airport or City:

Trip Planner

Search our weather history database for the weather conditions in past years. The results will help you decide how hot, cold, wet, or windy it might be!

Date:

Astronomy

Oct. 18, 2011 Rise Set
Actual Time 7:38 AM EDT 7:00 PM EDT
Civil Twilight 7:13 AM EDT 7:24 PM EDT
Nautical Twilight 6:45 AM EDT 7:52 PM EDT
Astronomical Twilight 6:18 AM EDT 8:20 PM EDT
Moon 11:54 PM EDT (10/18) 1:13 PM EDT (10/18)
Length of Visible Light 12h 10m
Length of Day
11h 22m
Waning Gibbous, 65% of the Moon is Illuminated
Oct 18
Waning Gibbous
Oct 19
Last Quarter
Oct 26
New
Nov 2
First Quarter
Nov 10
Full

Hourly Weather History & Observations

Time (EDT) Temp. Heat Index Dew Point Humidity Pressure Visibility Wind Dir Wind Speed Gust Speed Precip Events Conditions
12:53 AM 73.0 °F - 66.0 °F 79% 29.86 in - ESE 8.1 mph - N/A   Unknown
1:53 AM 73.0 °F - 66.9 °F 81% 29.84 in - ESE 6.9 mph - N/A   Unknown
2:53 AM 73.0 °F - 66.9 °F 81% 29.82 in - East 5.8 mph - N/A   Unknown
3:53 AM 71.1 °F - 66.9 °F 87% 29.81 in - East 4.6 mph - N/A   Unknown
4:53 AM 71.1 °F - 66.9 °F 87% 29.80 in - Calm Calm - N/A   Unknown
5:53 AM 71.1 °F - 66.9 °F 87% 29.79 in - East 5.8 mph - N/A   Unknown
6:53 AM 72.0 °F - 68.0 °F 87% 29.79 in - East 6.9 mph - N/A   Unknown
7:53 AM 72.0 °F - 68.0 °F 87% 29.78 in - East 4.6 mph - N/A   Unknown
8:53 AM 73.9 °F - 69.1 °F 85% 29.78 in - ESE 5.8 mph - N/A   Unknown
9:53 AM 77.0 °F - 69.1 °F 76% 29.78 in - SE 9.2 mph - N/A   Unknown
10:53 AM 79.0 °F - 69.1 °F 72% 29.77 in - SSE 8.1 mph - N/A   Unknown
11:53 AM 80.1 °F 82.9 °F 69.1 °F 69% 29.75 in - SE 9.2 mph - N/A   Unknown
12:53 PM 81.0 °F 83.8 °F 68.0 °F 65% 29.72 in - SE 9.2 mph - N/A   Unknown
1:53 PM 81.0 °F 83.8 °F 68.0 °F 65% 29.68 in - SE 8.1 mph - N/A   Unknown
2:53 PM 81.0 °F 84.1 °F 69.1 °F 67% 29.63 in - SSW 4.6 mph - 0.01 in   Unknown
3:53 PM 81.0 °F 83.0 °F 66.0 °F 60% 29.63 in - SSE 9.2 mph - N/A   Unknown
4:53 PM 73.9 °F - 70.0 °F 87% 29.63 in - Calm Calm - 0.12 in   Unknown
5:53 PM 73.9 °F - 70.0 °F 87% 29.62 in - Calm Calm - 0.25 in   Unknown
6:53 PM 73.0 °F - 70.0 °F 90% 29.59 in - ESE 6.9 mph - 0.31 in   Unknown
7:53 PM 73.9 °F - 70.0 °F 87% 29.56 in - East 6.9 mph - 0.06 in   Unknown
8:53 PM 73.0 °F - 70.0 °F 90% 29.55 in - Calm Calm - 0.02 in   Unknown
9:53 PM 73.0 °F - 70.0 °F 90% 29.56 in - WNW 6.9 mph - N/A   Unknown
10:53 PM 73.9 °F - 69.1 °F 85% 29.55 in - WNW 10.4 mph - 0.02 in   Unknown
11:53 PM 73.0 °F - 70.0 °F 90% 29.55 in - North 3.5 mph - 0.28 in   Unknown